Location: Killam
(52.7910°N, 111.8608°W)
Time: 14:40:01
(UTC+00:00)

Tiros 1 - Pass Details

Date: 23 February 2026
Orbit: 618 x 650 km, 48.4° (Epoch: 13 March)

Event Time Altitude Azimuth Distance (km) Brightness Sun altitude
Rises 13:13:57 0° 194° (SSW) 2,920 10.4 -11.8°
Reaches altitude 10° 13:17:33 10° 166° (SSE) 2,008 9.9 -11.2°
Maximum altitude 13:19:30 13° 140° (SE) 1,838 10.1 -10.9°
Drops below altitude 10° 13:21:28 10° 115° (ESE) 2,004 10.9 -10.6°
Sets 13:25:02 0° 87° (E) 2,908 12.7 -10.1°
